CAPE
3516 3525 3508 3505 3479 2751 2541 2169 2215 1455 1031 1530 1479 1120 752 641 600 378 173 305 197 124 50 28 78 135 31 2 127 77 18 20 18 23 44 31 30 34 47 31 43 33 9
3361 3382 3566 3592 3543 3400 2462 2897 2592 2266 1940 1134 1262 1023 891 664 605 377 71 278 215 193 229 125 142 197 122 37 57 38 62 15 0 4 13 44 68 58 64 46 30 41 35
3085 3225 3545 3459 3395 3296 3246 2502 2848 2586 2020 1161 1409 1103 1038 671 587 334 434 410 10 3 85 200 209 119 126 64 190 83 145 138 103 57 45 98 40 70 14 23 47 54 37
2830 2983 3122 3371 3287 3191 3217 3167 2868 2990 2411 1815 1381 1300 1113 919 608 315 471 539 206 153 388 271 202 254 273 142 237 142 134 55 41 92 10 13 26 37 29 15 6 17 4
2414 2858 3139 3440 3480 3410 3054 3257 2974 3281 2866 2258 1480 1454 1345 937 737 411 222 512 496 254 446 381 346 425 462 424 229 193 150 48 52 26 43 38 19 1 0 0 0 0 0
1914 2680 2960 3310 3703 3580 3314 3106 3270 3168 3107 2527 1729 1462 1299 925 468 138 190 549 446 354 380 313 102 547 413 201 108 99 101 78 55 3 13 81 62 51 27 12 0 0 0
2329 2571 2842 3136 3579 3708 3618 3193 3252 3111 3063 2479 1803 1519 1247 929 211 0 35 410 372 439 594 347 499 483 395 645 375 174 66 66 20 19 21 19 48 38 43 0 0 0 0
2481 3045 3154 3448 3796 3832 3615 3434 3065 3294 3109 2253 1877 1415 1081 704 34 0 0 18 131 320 366 488 469 549 532 524 371 249 102 183 149 72 16 24 58 78 28 0 0 0 0
2970 3449 3463 3888 4180 3930 3780 3530 3434 3161 2917 2271 1538 1127 806 354 14 31 0 0 0 99 420 455 678 606 851 529 310 44 96 157 162 103 81 84 108 0 0 0 0 0 0
3346 3221 3869 4300 4189 4111 3971 3755 3435 2991 2399 2079 1713 1222 786 377 173 191 11 61 84 190 360 277 305 637 479 254 48 134 130 67 218 103 51 3 0 0 1 7 9 6 5
3697 3716 4001 3961 4204 4278 3794 3268 2925 2421 2027 1820 1449 1022 685 429 367 172 139 229 170 356 285 351 476 409 138 15 8 33 45 0 5 13 0 0 0 6 45 83 28 9 15
3763 3794 3956 4065 3955 3674 3180 2639 2444 2110 1758 1495 1175 905 709 655 499 203 119 78 305 369 367 451 246 93 8 2 0 0 0 0 0 0 0 0 20 0 0 0 0 0 0
3445 3608 3739 3697 3284 3087 2645 2215 1999 1702 1186 1003 875 703 611 860 820 418 131 15 0 282 255 22 0 0 0 0 0 0 0 0 0 0 0 0 0 0 0 0 0 0 0
3615 3597 3180 2690 2415 2179 1749 1462 1289 1128 995 833 793 884 1002 872 670 167 64 7 0 0 0 0 0 0 0 0 0 0 0 0 5 7 0 0 0 0 0 0 0 0 0
2816 2559 2353 1979 1779 1000 393 666 984 426 632 966 1238 966 945 950 788 402 362 33 2 0 0 0 0 0 0 0 0 5 13 13 11 21 1 0 0 0 0 0 0 0 0
1997 1743 1536 1490 987 489 292 88 0 0 0 1 21 297 59 320 62 0 0 0 0 0 0 203 151 65 85 107 45 30 34 26 20 3 0 0 0 0 0 0 0 0 0
1696 1563 1228 1217 1066 863 634 342 20 0 0 0 0 0 0 0 0 0 0 0 0 0 19 3 0 0 14 11 14 18 26 5 0 0 0 0 0 0 0 0 0 0 0
1800 1270 1334 1068 997 1079 784 713 189 0 0 0 0 0 0 0 0 0 0 0 0 0 0 0 0 12 5 7 1 1 0 0 0 0 0 0 0 0 0 0 0 0 0
1054 943 1060 935 749 572 376 290 110 6 0 0 0 0 0 0 0 0 0 0 0 0 2 5 1 0 0 0 0 0 0 0 0 0 0 0 0 0 0 0 0 0 0
610 646 705 441 108 156 52 2 3 14 5 0 0 0 0 0 0 0 0 0 0 0 0 0 0 0 0 0 0 0 0 0 0 0 0 0 0 0 0 0 0 0 0
367 112 3 125 35 25 20 0 27 66 37 17 2 0 0 0 0 0 0 0 0 0 0 0 0 0 0 0 0 0 0 0 0 0 0 0 0 0 0 0 0 0 0
72 98 37 66 72 90 39 32 59 108 146 95 36 0 0 0 2 1 0 4 4 0 0 0 0 0 0 0 0 0 0 0 0 0 0 0 0 0 0 0 0 0 0
67 45 24 34 40 31 24 92 72 21 53 46 22 0 0 0 23 17 3 5 1 0 0 0 0 0 0 0 0 0 0 0 0 0 0 0 0 0 0 0 0 0 0
45 4 44 79 71 101 72 76 89 35 44 41 1 0 3 16 42 13 12 1 2 0 0 0 0 0 0 0 0 0 0 0 0 0 0 0 0 0 0 0 0 0 0
53 49 60 80 54 88 22 55 40 52 61 55 42 18 32 43 25 15 11 4 6 2 0 0 1 0 0 0 0 0 0 0 0 0 0 0 0 0 0 0 0 0 0
12 5 17 41 46 48 56 31 26 38 35 36 42 32 26 30 28 14 11 8 5 1 1 3 1 0 0 0 0 0 0 0 0 0 0 0 0 0 0 0 0 0 0
CIN
-47 -38 -31 -36 -36 -59 -45 -60 -59 -71 -108 -53 -121 -165 -194 -189 -153 -164 -180 -106 -146 -162 -197 -167 -97 -36 -52 -25 -14 -40 -15 -12 -4 -8 -17 -19 -25 -16 -16 -10 -10 -8 -13
-85 -65 -53 -46 -47 -43 -85 -34 -51 -78 -68 -125 -142 -194 -202 -200 -174 -188 -222 -106 -100 -121 -118 -139 -81 -34 -40 -37 -59 -21 -38 -18 -0 -23 -20 -22 -18 -11 -15 -11 -15 -8 -5
-103 -91 -63 -66 -73 -81 -77 -100 -55 -81 -108 -177 -158 -186 -183 -223 -209 -225 -152 -118 -145 -39 -137 -129 -93 -71 -44 -40 -30 -52 -52 -49 -14 -10 -18 -15 -15 -6 -8 -11 -15 -10 -20
-121 -119 -113 -104 -121 -133 -101 -95 -79 -56 -109 -167 -180 -188 -173 -182 -203 -228 -129 -82 -108 -79 -42 -77 -82 -24 -26 -77 -34 -101 -34 -34 -49 -32 -42 -36 -28 -14 -9 -11 -15 -9 -5
-138 -139 -135 -123 -120 -103 -113 -84 -100 -40 -90 -142 -214 -187 -151 -187 -197 -231 -229 -84 -57 -61 -46 -60 -56 -18 -7 -5 -47 -57 -24 -21 -32 -38 -17 -9 -12 -0 -0 -0 -0 -0 -0
-164 -150 -143 -127 -96 -107 -110 -94 -59 -57 -55 -102 -189 -188 -190 -186 -251 -405 -278 -80 -50 -45 -44 -47 -82 -13 -18 -39 -51 -34 -31 -35 -32 -31 -27 -18 -21 -20 -30 -24 -0 -0 -0
-133 -129 -136 -139 -125 -106 -86 -92 -62 -61 -67 -104 -168 -145 -144 -149 -360 -0 -346 -106 -47 -11 -7 -28 -10 -14 -8 -8 -20 -36 -65 -94 -68 -41 -44 -46 -16 -20 -7 -0 -0 -0 -0
-129 -86 -86 -108 -108 -98 -90 -80 -87 -52 -49 -115 -117 -142 -151 -214 -328 -0 -0 -121 -145 -18 -11 -7 -11 -10 -10 -14 -18 -29 -63 -49 -50 -57 -55 -36 -14 -12 -10 -0 -0 -0 -0
-131 -76 -76 -69 -57 -67 -73 -79 -54 -37 -55 -95 -160 -198 -227 -341 -452 -362 -0 -0 -0 -115 -3 -3 -3 -8 -9 -27 -28 -31 -36 -28 -25 -21 -13 -16 -21 -0 -0 -2 -0 -0 -0
-137 -146 -71 -24 -31 -55 -52 -28 -27 -61 -98 -88 -122 -163 -219 -320 -348 -289 -323 -201 -149 -127 -37 -19 -22 -14 -21 -43 -50 -38 -45 -37 -7 -19 -27 -2 -0 -0 -3 -46 -38 -28 -16
-97 -113 -66 -57 -34 -19 -41 -73 -106 -126 -126 -117 -129 -164 -212 -225 -172 -242 -223 -115 -104 -20 -24 -4 -21 -45 -62 -87 -116 -81 -64 -0 -12 -18 -0 -0 -0 -16 -15 -17 -34 -27 -3
-82 -79 -38 -35 -32 -59 -95 -132 -159 -147 -123 -124 -140 -150 -144 -102 -102 -191 -178 -159 -19 -11 -9 -19 -27 -76 -137 -123 -0 -0 -0 -0 -0 -0 -0 -0 -5 -0 -0 -0 -0 -0 -0
-71 -52 -22 -28 -40 -71 -110 -199 -164 -142 -183 -184 -172 -165 -124 -28 -3 -88 -158 -183 -0 -24 -54 -103 -0 -0 -0 -0 -0 -0 -0 -0 -0 -0 -0 -1 -0 -0 -0 -0 -0 -0 -0
-9 -17 -52 -100 -133 -154 -201 -155 -195 -181 -161 -164 -117 -55 -1 -4 -31 -158 -200 -28 -0 -0 -0 -0 -0 -0 -0 -0 -0 -0 -0 -0 -25 -9 -0 -0 -0 -0 -0 -0 -0 -0 -0
-36 -103 -133 -163 -159 -301 -528 -387 -184 -362 -214 -63 -5 -10 -6 -8 -24 -74 -63 -78 -96 -0 -0 -0 -0 -0 -0 -11 -33 -66 -66 -47 -34 -12 -3 -0 -0 -0 -0 -0 -0 -0 -0
-145 -161 -182 -169 -236 -387 -442 -560 -0 -0 -0 -160 -452 -111 -257 -85 -182 -0 -0 -0 -0 -0 -0 -16 -16 -14 -8 -27 -49 -33 -31 -27 -12 -2 -0 -0 -0 -0 -0 -0 -0 -0 -0
-165 -179 -196 -144 -143 -168 -228 -294 -383 -0 -0 -0 -0 -0 -0 -0 -0 -0 -0 -0 -0 -0 -65 -1 -0 -0 -15 -24 -23 -23 -7 -11 -0 -0 -0 -0 -0 -0 -0 -0 -0 -0 -0
-99 -151 -119 -101 -151 -11 -64 -88 -220 -0 -0 -0 -0 -0 -0 -0 -0 -0 -0 -0 -0 -0 -0 -0 -0 -12 -10 -13 -10 -3 -0 -0 -0 -0 -0 -0 -0 -0 -0 -0 -0 -0 -0
-57 -51 -20 -32 -58 -100 -8 -46 -93 -254 -34 -0 -0 -0 -0 -0 -0 -0 -0 -0 -0 -0 -8 -8 -1 -0 -0 -0 -0 -0 -0 -0 -0 -0 -0 -0 -0 -0 -0 -0 -0 -0 -0
-70 -75 -19 -6 -118 -57 -52 -27 -43 -16 -32 -0 -0 -0 -0 -0 -0 -0 -0 -0 -0 -0 -0 -0 -0 -0 -0 -0 -0 -0 -0 -0 -0 -0 -0 -0 -0 -0 -0 -0 -0 -0 -0
-12 -38 -45 -46 -55 -34 -54 -1 -3 -32 -39 -55 -40 -0 -0 -0 -0 -0 -0 -0 -0 -0 -0 -0 -0 -0 -0 -0 -0 -0 -0 -0 -0 -0 -0 -0 -0 -0 -0 -0 -0 -0 -0
-24 -31 -40 -10 -6 -23 -43 -3 -2 -9 -37 -55 -21 -0 -0 -0 -6 -6 -0 -26 -14 -1 -8 -0 -0 -0 -0 -0 -0 -0 -0 -0 -0 -0 -0 -0 -0 -0 -0 -0 -0 -0 -0
-20 -28 -40 -42 -34 -46 -26 -4 -29 -54 -51 -52 -53 -0 -0 -4 -24 -20 -22 -23 -10 -5 -0 -6 -0 -0 -0 -0 -0 -0 -0 -0 -0 -0 -0 -0 -0 -0 -0 -0 -0 -0 -0
-25 -51 -44 -61 -29 -15 -10 -11 -21 -41 -52 -31 -52 -0 -50 -39 -23 -11 -17 -28 -27 -0 -0 -0 -0 -0 -0 -0 -0 -0 -0 -0 -0 -0 -0 -0 -0 -0 -0 -0 -0 -0 -0
-44 -63 -62 -57 -24 -14 -38 -11 -8 -8 -17 -26 -31 -18 -32 -18 -26 -33 -37 -36 -36 -39 -4 -0 -7 -0 -0 -0 -0 -0 -0 -0 -0 -0 -0 -0 -0 -0 -0 -0 -0 -0 -0
-18 -13 -9 -4 -14 -18 -14 -5 -22 -24 -16 -15 -20 -24 -18 -38 -33 -35 -42 -28 -40 -14 -28 -26 -15 -0 -0 -0 -0 -0 -0 -0 -0 -0 -0 -0 -0 -0 -0 -0 -0 -0 -0
Wind_Speed
21 21 19 18 19 22 20 18 15 14 12 9 8 7 5 4 4 3 2 4 7 10 9 11 16 17 18 18 21 21 19 19 18 23 23 26 26 26 25 26 26 24 23
21 22 22 20 22 21 22 17 14 13 11 10 8 7 6 6 4 2 2 3 6 7 8 7 10 14 15 18 20 21 22 23 23 26 25 28 27 27 24 28 31 28 25
22 24 23 25 24 23 20 20 16 15 13 11 10 8 6 6 5 5 4 5 6 6 6 8 7 8 17 18 17 18 20 22 24 23 23 26 29 27 29 30 30 26 24
22 24 25 25 24 23 19 19 19 17 14 12 11 10 8 8 7 7 7 8 8 8 8 9 9 6 8 12 14 17 21 23 25 26 27 27 31 29 31 32 34 29 31
24 25 25 23 22 19 18 17 17 15 15 12 11 10 9 8 7 8 9 9 8 8 8 9 9 12 9 9 12 15 18 21 22 22 24 27 31 31 34 35 35 34 32
22 24 21 20 19 19 17 15 15 14 12 10 11 10 9 10 9 8 8 9 9 9 10 11 9 10 10 11 14 16 21 25 26 25 29 31 32 33 33 33 34 36 38
19 21 21 19 19 18 15 14 13 13 9 10 9 8 8 8 8 9 9 9 8 9 10 10 10 11 12 14 18 20 21 22 20 23 24 28 31 32 30 32 32 35 37
20 18 19 18 18 15 13 13 11 9 9 7 7 7 8 8 7 7 9 9 11 13 11 9 8 8 15 18 21 24 25 22 22 22 24 26 25 27 27 29 34 33 30
19 17 18 16 14 13 11 11 8 7 6 6 7 7 9 10 8 7 9 10 13 13 12 10 12 12 18 18 18 22 24 23 24 25 23 24 24 25 27 30 31 29 31
19 19 14 13 13 12 10 8 6 6 7 8 9 9 10 11 9 8 7 10 9 10 8 9 10 12 16 19 21 22 24 24 24 28 27 26 25 26 24 23 25 26 27
17 15 14 13 11 9 7 6 8 9 10 10 11 12 11 12 11 8 7 7 10 7 10 11 11 13 16 19 21 24 25 26 27 29 30 29 26 25 22 21 18 20 25
14 13 12 10 9 7 7 9 9 8 12 13 14 14 13 12 9 7 5 6 8 10 13 14 14 16 17 19 19 20 24 28 28 29 28 26 26 27 27 28 29 29 27
13 12 10 8 7 6 8 8 10 9 11 13 13 14 14 11 12 9 7 8 8 12 15 18 18 18 18 18 19 20 24 26 27 25 26 26 28 28 29 28 26 27 27
12 10 8 7 6 6 8 10 7 9 11 12 13 14 14 15 12 11 10 9 9 11 14 15 16 15 15 20 20 19 21 22 21 23 26 24 23 27 29 28 30 31 33
9 7 6 6 7 9 11 12 10 12 11 12 13 14 15 15 9 8 10 11 10 10 12 13 13 16 17 17 17 17 17 18 19 18 24 25 27 28 28 29 30 31 30
9 7 8 7 8 9 9 11 14 12 14 15 16 14 14 11 8 10 11 11 10 10 11 12 15 19 19 15 15 16 15 14 15 21 23 25 26 27 28 28 28 27 30
6 5 6 8 9 9 9 11 11 15 16 16 15 13 12 10 9 9 10 11 12 13 15 17 18 18 15 14 15 15 16 16 19 22 23 23 25 25 25 26 27 28 30
5 5 6 7 6 9 7 8 9 12 14 15 15 13 11 10 9 9 10 12 15 15 14 14 14 15 16 16 18 20 21 22 23 25 26 26 23 23 25 26 27 30 32
8 9 10 7 8 9 12 12 11 11 10 12 11 12 11 11 11 11 11 14 15 15 10 14 17 19 19 21 20 19 19 19 20 20 20 17 22 25 26 27 29 31 33
9 5 6 9 11 10 12 14 14 9 8 10 9 10 9 10 11 12 12 13 14 15 17 19 19 19 19 19 18 19 18 15 14 13 15 21 22 24 25 28 29 31 31
13 12 12 5 8 10 13 14 11 7 7 8 8 8 6 7 9 9 9 9 9 12 13 14 18 18 17 14 14 15 14 12 13 16 19 21 24 24 26 28 28 29 31
11 12 12 10 7 8 10 10 11 9 7 7 7 6 4 8 8 7 6 8 7 9 14 15 16 18 18 18 18 16 15 14 14 17 19 19 20 22 26 25 27 28 29
11 7 12 12 8 10 9 9 13 11 11 9 7 6 5 8 12 10 7 9 10 10 11 13 15 15 16 14 15 15 13 12 16 17 17 18 17 21 23 23 24 26 27
10 10 10 8 8 12 11 11 12 13 11 10 8 7 6 8 11 11 7 8 10 9 10 12 11 13 15 14 14 12 12 14 15 16 18 15 16 21 20 20 24 22 25
11 12 15 14 8 10 13 16 13 11 13 11 10 9 8 10 13 12 9 8 8 7 8 7 7 9 9 11 13 14 14 14 14 14 13 13 12 11 20 19 22 17 24
11 11 10 10 15 16 17 15 13 10 10 13 10 10 9 10 9 9 6 7 8 6 6 4 5 7 10 11 10 10 12 13 13 13 12 10 9 13 20 16 19 18 23
Wind_Direction
180 180 182 183 180 179 179 178 176 176 172 151 153 151 153 159 151 138 141 30 45 36 37 330 326 328 329 328 329 338 341 335 334 329 324 325 322 326 325 325 327 326 327
180 181 183 184 183 185 188 185 186 186 178 179 177 180 180 183 191 212 213 348 9 16 23 10 334 328 325 324 327 329 331 328 326 325 325 322 323 324 326 325 325 325 323
181 182 184 186 188 191 193 195 193 194 196 198 201 210 216 219 228 234 258 304 327 338 352 1 332 329 316 318 327 329 329 327 327 330 329 323 320 323 322 324 326 330 325
185 185 188 189 191 194 196 197 198 199 203 210 218 227 236 235 245 252 272 298 311 320 331 341 336 316 322 322 327 328 326 327 322 320 322 322 318 320 322 323 322 326 324
187 188 190 191 192 194 196 199 200 204 210 216 222 232 234 241 248 261 271 288 295 303 312 321 325 311 313 326 326 324 324 327 323 321 321 320 321 324 321 322 320 323 323
191 194 194 193 194 196 199 202 203 207 215 224 228 236 241 249 249 248 266 284 289 289 304 313 310 313 310 316 320 324 324 321 319 317 316 316 319 319 322 322 322 321 319
201 196 197 197 197 197 200 203 211 216 225 225 226 247 260 267 261 256 265 289 289 291 302 307 306 309 311 318 319 322 326 323 320 319 318 320 318 320 323 322 323 321 318
205 204 200 200 198 198 202 205 212 222 223 235 256 271 288 289 286 292 290 287 303 308 299 294 298 300 315 316 317 319 323 323 319 317 314 319 321 323 324 323 322 322 324
208 212 203 207 212 215 219 217 222 233 244 271 283 287 294 306 290 295 296 292 296 296 295 299 305 303 312 316 318 317 321 323 322 321 317 318 321 322 322 322 321 323 323
213 208 213 213 218 224 229 236 251 270 284 289 301 302 303 303 294 292 292 307 298 300 293 284 293 303 311 319 320 321 322 324 328 325 328 327 324 322 322 321 319 319 321
229 217 218 208 213 217 224 242 276 288 300 303 310 315 312 307 306 282 289 304 306 297 318 313 306 309 315 320 323 323 322 324 327 325 324 325 326 325 327 333 333 329 325
225 219 214 214 215 221 248 283 291 300 306 313 315 318 320 318 311 292 280 280 313 311 323 329 324 318 319 320 323 322 322 322 327 326 326 328 330 333 333 332 329 327 327
216 217 216 210 236 255 264 286 310 308 312 314 316 319 322 327 329 327 307 302 301 313 321 324 327 326 324 322 324 328 328 328 328 327 329 332 332 332 332 333 335 333 332
217 206 205 229 256 279 299 311 319 312 316 323 322 322 325 329 330 334 337 334 329 323 323 328 330 333 332 325 328 330 333 334 337 335 335 338 338 335 333 335 334 334 330
221 221 232 250 274 295 313 317 322 326 322 322 328 330 328 328 336 347 342 336 334 330 332 337 337 335 333 330 330 334 337 337 337 340 338 336 335 335 335 336 336 333 335
232 250 261 270 288 302 315 330 342 343 341 342 338 340 342 353 6 357 356 356 352 352 343 335 333 331 328 329 334 337 340 340 342 343 341 339 338 337 336 337 338 339 337
238 252 269 279 294 299 304 316 324 337 345 346 352 359 0 7 11 10 10 7 1 353 341 337 336 339 347 347 346 347 349 354 348 344 342 342 341 341 342 343 343 341 339
274 282 274 290 298 307 325 326 327 326 328 336 352 358 6 11 14 11 7 0 348 347 350 347 346 354 353 353 349 346 346 346 345 343 341 340 345 347 345 344 343 337 336
297 309 306 308 307 309 306 313 318 329 343 357 357 359 7 7 6 2 0 350 347 347 357 356 352 351 350 350 354 354 354 352 351 350 353 358 350 344 342 342 339 335 332
317 323 328 319 323 316 315 314 320 331 346 350 356 355 357 351 347 352 353 348 347 350 351 349 348 352 354 356 357 357 358 3 7 8 4 356 354 351 347 342 339 338 339
305 309 326 332 312 311 319 318 325 332 336 339 351 6 29 15 3 1 8 17 13 0 1 2 355 359 2 8 10 10 12 14 14 8 1 356 349 347 346 343 343 342 340
310 304 298 309 316 328 330 331 334 333 326 342 351 10 37 3 1 8 11 9 13 9 359 3 1 357 360 3 4 8 10 14 15 11 6 3 3 358 350 353 350 347 345
325 326 329 332 327 338 332 352 353 355 353 353 353 354 352 345 346 357 359 356 0 7 13 11 6 6 9 14 15 16 20 28 19 15 14 8 11 3 0 2 0 356 355
357 352 343 337 338 335 334 332 336 340 345 345 354 346 336 339 343 347 358 355 352 358 3 2 10 15 15 17 18 24 28 23 24 19 14 20 15 5 9 10 6 8 4
336 331 325 320 324 320 329 322 324 330 325 333 332 333 334 335 335 336 346 352 349 357 0 14 27 28 29 22 24 25 28 22 20 20 23 25 31 33 12 15 13 27 12
348 344 329 322 319 318 316 318 327 327 325 328 331 325 324 329 329 330 329 325 333 346 350 16 36 27 27 26 30 36 30 24 24 27 34 45 50 33 13 29 24 28 15